{"data":{"norad_id":52864,"epoch":"2026-05-25T02:39:59.510016Z","epoch_age_seconds":61293,"freshness":"FRESH","line1":"1 52864U 22062AL  26145.11110544 -.00000353  00000+0 -40690-5 0  9998","line2":"2 52864  53.2158  41.0507 0001361  95.4996 264.6152 15.08843083217467","mean_motion":15.08843083,"eccentricity":0.0001361,"inclination_deg":53.2158,"raan_deg":41.0507,"arg_perigee_deg":95.4996,"mean_anomaly_deg":264.6152,"bstar":-4.069e-6,"rev_number":21746,"period_min":95.437359671417,"perigee_km":538.79244324412,"apogee_km":540.67548772093,"semimajor_km":6917.8709654825,"source":"CELESTRAK","updated_at":"2026-05-25T13:38:17.248045Z"}}